QPF
0.03 0.04 0.05 0.04 0.06 0.06 0.04 0.04 0.04 0.02 0.01 0.01 0.01 0.01 0.02 0.02 0.02 0.02 0.02 0.02 0.02 0.03 0.04 0.04 0.05 0.06 0.06 0.04 0.04 0.04 0.05 0.05 0.06 0.05 0.04 0.03 0.02 0.02 0.02 0.02 0.03 0.03 0.03
0.04 0.05 0.05 0.05 0.06 0.05 0.03 0.03 0.04 0.03 0.02 0.02 0.02 0.01 0.02 0.02 0.02 0.02 0.02 0.02 0.02 0.03 0.03 0.04 0.04 0.05 0.07 0.08 0.06 0.05 0.05 0.05 0.05 0.06 0.06 0.05 0.03 0.02 0.02 0.02 0.03 0.02 0.03
0.03 0.03 0.04 0.05 0.05 0.03 0.03 0.02 0.03 0.03 0.03 0.03 0.03 0.03 0.03 0.02 0.02 0.02 0.02 0.03 0.03 0.03 0.04 0.05 0.04 0.04 0.04 0.07 0.10 0.09 0.08 0.06 0.05 0.05 0.06 0.07 0.05 0.04 0.03 0.03 0.03 0.02 0.02
0.02 0.04 0.06 0.05 0.03 0.04 0.04 0.03 0.03 0.03 0.03 0.04 0.04 0.03 0.03 0.03 0.03 0.02 0.02 0.03 0.04 0.04 0.04 0.05 0.06 0.05 0.05 0.05 0.08 0.10 0.09 0.08 0.07 0.06 0.05 0.06 0.06 0.05 0.04 0.03 0.03 0.03 0.03
0.05 0.07 0.07 0.06 0.06 0.08 0.08 0.06 0.05 0.04 0.04 0.05 0.06 0.04 0.03 0.02 0.02 0.02 0.03 0.03 0.04 0.04 0.05 0.05 0.04 0.04 0.03 0.03 0.05 0.07 0.09 0.08 0.07 0.06 0.06 0.07 0.06 0.06 0.05 0.03 0.03 0.03 0.03
0.06 0.06 0.05 0.06 0.09 0.09 0.06 0.06 0.09 0.07 0.06 0.06 0.07 0.04 0.02 0.01 0.02 0.03 0.03 0.03 0.03 0.03 0.03 0.02 0.02 0.02 0.02 0.02 0.02 0.03 0.06 0.08 0.08 0.07 0.08 0.08 0.07 0.06 0.05 0.05 0.04 0.03 0.03
0.08 0.09 0.08 0.07 0.06 0.06 0.06 0.07 0.09 0.09 0.07 0.08 0.08 0.05 0.02 0.01 0.02 0.03 0.04 0.06 0.04 0.02 0.02 0.02 0.01 0.01 0.01 0.02 0.02 0.02 0.03 0.06 0.09 0.09 0.09 0.09 0.07 0.06 0.06 0.06 0.05 0.04 0.04
0.15 0.12 0.09 0.08 0.08 0.07 0.06 0.06 0.07 0.06 0.05 0.08 0.10 0.08 0.04 0.02 0.01 0.01 0.03 0.05 0.05 0.03 0.02 0.01 0.01 0.01 0.02 0.02 0.02 0.02 0.03 0.05 0.08 0.11 0.11 0.09 0.09 0.08 0.09 0.09 0.07 0.06 0.05
0.13 0.13 0.12 0.09 0.08 0.08 0.07 0.07 0.08 0.08 0.09 0.10 0.11 0.09 0.06 0.03 0.01 0.01 0.01 0.02 0.03 0.03 0.02 0.02 0.02 0.02 0.02 0.02 0.02 0.02 0.03 0.04 0.05 0.08 0.12 0.12 0.10 0.09 0.09 0.11 0.12 0.10 0.07
0.10 0.11 0.12 0.13 0.11 0.08 0.07 0.08 0.08 0.07 0.06 0.06 0.06 0.06 0.06 0.06 0.04 0.02 0.01 0.02 0.03 0.03 0.03 0.03 0.02 0.02 0.03 0.02 0.02 0.02 0.03 0.03 0.03 0.04 0.07 0.11 0.10 0.08 0.07 0.08 0.11 0.12 0.11
0.10 0.12 0.14 0.17 0.17 0.12 0.09 0.08 0.07 0.06 0.04 0.03 0.03 0.03 0.04 0.05 0.05 0.03 0.02 0.01 0.01 0.02 0.02 0.03 0.04 0.03 0.03 0.03 0.02 0.02 0.02 0.04 0.05 0.05 0.05 0.07 0.08 0.07 0.07 0.07 0.08 0.11 0.12
0.11 0.12 0.15 0.17 0.15 0.10 0.09 0.08 0.07 0.05 0.03 0.03 0.03 0.03 0.03 0.03 0.04 0.04 0.02 0.02 0.01 0.01 0.01 0.02 0.03 0.03 0.03 0.03 0.02 0.02 0.02 0.02 0.03 0.05 0.05 0.06 0.07 0.07 0.06 0.07 0.07 0.10 0.13
0.09 0.12 0.13 0.11 0.08 0.08 0.08 0.08 0.07 0.05 0.04 0.03 0.03 0.03 0.02 0.02 0.02 0.03 0.03 0.02 0.03 0.03 0.02 0.02 0.03 0.03 0.04 0.04 0.03 0.04 0.03 0.03 0.02 0.03 0.04 0.06 0.08 0.09 0.08 0.07 0.07 0.08 0.09
0.06 0.09 0.09 0.07 0.06 0.07 0.07 0.08 0.09 0.08 0.07 0.05 0.03 0.03 0.02 0.02 0.02 0.02 0.03 0.03 0.03 0.02 0.01 0.02 0.03 0.04 0.03 0.03 0.03 0.05 0.03 0.03 0.03 0.02 0.03 0.04 0.07 0.09 0.08 0.06 0.06 0.08 0.08
0.06 0.07 0.07 0.08 0.08 0.07 0.07 0.07 0.07 0.07 0.07 0.06 0.05 0.05 0.03 0.02 0.02 0.03 0.03 0.03 0.03 0.03 0.02 0.02 0.03 0.03 0.02 0.02 0.05 0.04 0.02 0.02 0.02 0.02 0.02 0.02 0.02 0.05 0.08 0.06 0.06 0.07 0.08
0.07 0.08 0.08 0.09 0.10 0.09 0.08 0.07 0.06 0.05 0.04 0.04 0.04 0.04 0.04 0.03 0.04 0.04 0.03 0.03 0.03 0.03 0.03 0.02 0.03 0.03 0.02 0.03 0.03 0.03 0.02 0.03 0.02 0.02 0.02 0.02 0.01 0.02 0.05 0.07 0.05 0.06 0.09
0.09 0.09 0.09 0.10 0.10 0.08 0.06 0.04 0.03 0.03 0.03 0.03 0.03 0.03 0.02 0.02 0.03 0.03 0.04 0.03 0.03 0.03 0.03 0.02 0.02 0.03 0.03 0.04 0.04 0.05 0.04 0.03 0.02 0.02 0.02 0.02 0.02 0.02 0.04 0.06 0.06 0.05 0.08
0.09 0.12 0.10 0.08 0.08 0.07 0.04 0.03 0.02 0.02 0.02 0.02 0.02 0.02 0.02 0.02 0.02 0.03 0.04 0.04 0.04 0.04 0.03 0.02 0.02 0.02 0.03 0.04 0.06 0.07 0.08 0.06 0.04 0.04 0.04 0.03 0.02 0.03 0.04 0.05 0.06 0.06 0.07
0.07 0.07 0.06 0.07 0.07 0.05 0.05 0.04 0.03 0.02 0.02 0.02 0.02 0.02 0.02 0.02 0.02 0.03 0.03 0.03 0.03 0.03 0.03 0.03 0.03 0.03 0.04 0.05 0.06 0.07 0.08 0.07 0.05 0.05 0.05 0.05 0.05 0.06 0.06 0.06 0.06 0.06 0.07
0.04 0.05 0.05 0.05 0.05 0.04 0.03 0.02 0.01 0.01 0.01 0.01 0.02 0.02 0.02 0.02 0.02 0.02 0.02 0.02 0.02 0.03 0.03 0.03 0.03 0.03 0.05 0.06 0.07 0.07 0.08 0.07 0.05 0.04 0.04 0.04 0.07 0.09 0.08 0.07 0.07 0.07 0.07
0.03 0.04 0.05 0.05 0.04 0.03 0.03 0.02 0.01 0.01 0.01 0.02 0.02 0.02 0.02 0.02 0.02 0.02 0.02 0.02 0.02 0.02 0.02 0.02 0.02 0.03 0.05 0.06 0.06 0.05 0.07 0.07 0.05 0.04 0.03 0.03 0.05 0.07 0.07 0.07 0.07 0.07 0.06
0.05 0.06 0.06 0.06 0.05 0.04 0.03 0.02 0.02 0.01 0.02 0.02 0.03 0.03 0.03 0.03 0.03 0.02 0.02 0.01 0.01 0.02 0.02 0.02 0.02 0.02 0.03 0.04 0.05 0.04 0.05 0.06 0.06 0.04 0.04 0.04 0.04 0.06 0.06 0.06 0.07 0.06 0.05
0.06 0.07 0.07 0.07 0.06 0.05 0.04 0.03 0.02 0.02 0.02 0.02 0.02 0.03 0.03 0.03 0.03 0.03 0.02 0.02 0.02 0.01 0.02 0.02 0.01 0.01 0.01 0.02 0.02 0.03 0.03 0.04 0.05 0.05 0.03 0.03 0.04 0.04 0.05 0.06 0.06 0.05 0.05
0.04 0.05 0.05 0.05 0.05 0.04 0.04 0.04 0.02 0.02 0.02 0.02 0.02 0.02 0.02 0.02 0.02 0.03 0.03 0.02 0.01 0.01 0.01 0.01 0.01 0.01 0.01 0.01 0.01 0.02 0.03 0.03 0.03 0.03 0.02 0.02 0.02 0.03 0.04 0.05 0.05 0.04 0.04
0.03 0.03 0.05 0.05 0.03 0.03 0.04 0.04 0.03 0.02 0.02 0.02 0.02 0.01 0.01 0.01 0.01 0.02 0.03 0.02 0.02 0.02 0.02 0.02 0.01 0.01 0.01 0.01 0.01 0.02 0.03 0.03 0.03 0.03 0.03 0.02 0.02 0.02 0.03 0.03 0.03 0.03 0.04
0.03 0.04 0.05 0.04 0.03 0.03 0.03 0.03 0.02 0.02 0.01 0.01 0.01 0.01 0.02 0.01 0.02 0.02 0.02 0.03 0.03 0.02 0.02 0.02 0.02 0.02 0.01 0.01 0.02 0.02 0.03 0.03 0.03 0.03 0.03 0.03 0.04 0.03 0.04 0.03 0.02 0.02 0.02
MSLP
1010.71 1010.96 1011.10 1011.20 1011.29 1011.43 1011.65 1011.95 1012.30 1012.64 1012.95 1013.18 1013.30 1013.33 1013.28 1013.21 1013.14 1013.12 1013.14 1013.23 1013.35 1013.49 1013.62 1013.73 1013.80 1013.85 1013.88 1013.90 1013.93 1013.96 1014.02 1014.09 1014.18 1014.30 1014.44 1014.62 1014.84 1015.10 1015.40 1015.72 1016.04 1016.35 1016.64
1010.41 1010.65 1010.82 1010.94 1011.08 1011.26 1011.52 1011.84 1012.20 1012.56 1012.86 1013.08 1013.20 1013.23 1013.18 1013.10 1013.02 1012.97 1012.97 1013.02 1013.11 1013.21 1013.31 1013.39 1013.44 1013.46 1013.46 1013.44 1013.42 1013.40 1013.40 1013.42 1013.47 1013.56 1013.68 1013.84 1014.06 1014.32 1014.61 1014.93 1015.26 1015.58 1015.89
1010.03 1010.28 1010.48 1010.66 1010.87 1011.12 1011.42 1011.76 1012.12 1012.47 1012.76 1012.97 1013.08 1013.10 1013.05 1012.96 1012.86 1012.79 1012.76 1012.76 1012.80 1012.86 1012.92 1012.96 1012.98 1012.97 1012.94 1012.89 1012.84 1012.78 1012.74 1012.72 1012.72 1012.77 1012.86 1013.00 1013.19 1013.44 1013.72 1014.03 1014.36 1014.68 1015.01
1009.61 1009.86 1010.12 1010.38 1010.66 1010.98 1011.32 1011.68 1012.03 1012.36 1012.61 1012.80 1012.89 1012.90 1012.85 1012.76 1012.66 1012.57 1012.50 1012.46 1012.45 1012.45 1012.46 1012.46 1012.44 1012.41 1012.36 1012.29 1012.21 1012.14 1012.06 1012.00 1011.97 1011.98 1012.03 1012.14 1012.29 1012.50 1012.76 1013.04 1013.36 1013.68 1014.01
1009.17 1009.45 1009.76 1010.10 1010.46 1010.83 1011.21 1011.56 1011.89 1012.17 1012.39 1012.54 1012.61 1012.62 1012.58 1012.50 1012.40 1012.31 1012.22 1012.14 1012.07 1012.02 1011.97 1011.93 1011.88 1011.82 1011.76 1011.68 1011.60 1011.51 1011.42 1011.34 1011.27 1011.24 1011.24 1011.30 1011.41 1011.58 1011.78 1012.04 1012.32 1012.62 1012.94
1008.76 1009.07 1009.44 1009.85 1010.27 1010.68 1011.06 1011.40 1011.69 1011.91 1012.08 1012.19 1012.26 1012.27 1012.25 1012.20 1012.13 1012.04 1011.94 1011.83 1011.72 1011.61 1011.52 1011.43 1011.35 1011.27 1011.20 1011.12 1011.04 1010.94 1010.84 1010.74 1010.65 1010.58 1010.54 1010.54 1010.60 1010.71 1010.87 1011.08 1011.31 1011.58 1011.88
1008.43 1008.76 1009.17 1009.63 1010.08 1010.51 1010.88 1011.18 1011.41 1011.58 1011.70 1011.79 1011.85 1011.90 1011.92 1011.91 1011.87 1011.80 1011.70 1011.56 1011.42 1011.26 1011.12 1010.98 1010.87 1010.78 1010.70 1010.63 1010.55 1010.46 1010.36 1010.24 1010.12 1010.02 1009.94 1009.91 1009.92 1009.97 1010.08 1010.22 1010.41 1010.63 1010.88
1008.18 1008.53 1008.97 1009.46 1009.92 1010.34 1010.68 1010.93 1011.10 1011.22 1011.30 1011.38 1011.46 1011.53 1011.60 1011.66 1011.66 1011.62 1011.52 1011.37 1011.18 1010.98 1010.78 1010.60 1010.46 1010.35 1010.27 1010.20 1010.13 1010.04 1009.94 1009.82 1009.69 1009.56 1009.46 1009.39 1009.36 1009.38 1009.44 1009.54 1009.67 1009.84 1010.05
1008.04 1008.40 1008.86 1009.34 1009.80 1010.18 1010.48 1010.67 1010.79 1010.86 1010.92 1011.00 1011.11 1011.24 1011.37 1011.47 1011.53 1011.50 1011.40 1011.22 1011.00 1010.74 1010.49 1010.26 1010.08 1009.96 1009.86 1009.79 1009.72 1009.65 1009.55 1009.43 1009.30 1009.16 1009.05 1008.97 1008.93 1008.92 1008.96 1009.03 1009.14 1009.26 1009.43
1008.00 1008.38 1008.83 1009.30 1009.72 1010.05 1010.29 1010.43 1010.50 1010.55 1010.61 1010.70 1010.85 1011.03 1011.21 1011.36 1011.45 1011.44 1011.32 1011.11 1010.83 1010.52 1010.20 1009.93 1009.72 1009.56 1009.44 1009.37 1009.30 1009.22 1009.12 1009.00 1008.88 1008.76 1008.66 1008.60 1008.57 1008.58 1008.62 1008.69 1008.78 1008.89 1009.02
1008.09 1008.46 1008.89 1009.31 1009.68 1009.96 1010.14 1010.23 1010.27 1010.31 1010.37 1010.50 1010.68 1010.90 1011.12 1011.31 1011.41 1011.38 1011.23 1010.98 1010.64 1010.26 1009.89 1009.57 1009.31 1009.11 1008.98 1008.88 1008.80 1008.71 1008.62 1008.51 1008.40 1008.30 1008.23 1008.20 1008.22 1008.27 1008.35 1008.45 1008.56 1008.67 1008.80
1008.27 1008.63 1009.03 1009.40 1009.72 1009.93 1010.05 1010.10 1010.12 1010.14 1010.22 1010.37 1010.58 1010.84 1011.08 1011.27 1011.35 1011.30 1011.11 1010.80 1010.40 1009.96 1009.54 1009.16 1008.86 1008.63 1008.46 1008.33 1008.23 1008.12 1008.02 1007.91 1007.81 1007.74 1007.72 1007.74 1007.82 1007.94 1008.08 1008.24 1008.38 1008.52 1008.67
1008.56 1008.91 1009.26 1009.58 1009.82 1009.98 1010.05 1010.06 1010.06 1010.08 1010.16 1010.32 1010.54 1010.80 1011.04 1011.21 1011.26 1011.16 1010.92 1010.56 1010.11 1009.63 1009.16 1008.74 1008.39 1008.12 1007.92 1007.76 1007.62 1007.48 1007.35 1007.23 1007.14 1007.09 1007.11 1007.19 1007.34 1007.54 1007.75 1007.98 1008.18 1008.38 1008.55
1008.96 1009.28 1009.60 1009.86 1010.04 1010.14 1010.16 1010.13 1010.10 1010.10 1010.18 1010.33 1010.54 1010.77 1010.98 1011.12 1011.12 1010.98 1010.70 1010.29 1009.80 1009.29 1008.79 1008.34 1007.97 1007.67 1007.42 1007.21 1007.02 1006.84 1006.66 1006.51 1006.41 1006.37 1006.42 1006.55 1006.76 1007.03 1007.32 1007.62 1007.90 1008.14 1008.35
1009.48 1009.78 1010.05 1010.27 1010.40 1010.44 1010.41 1010.34 1010.27 1010.25 1010.29 1010.40 1010.58 1010.76 1010.92 1011.00 1010.96 1010.78 1010.46 1010.03 1009.53 1009.01 1008.50 1008.05 1007.65 1007.32 1007.02 1006.76 1006.50 1006.25 1006.02 1005.82 1005.69 1005.64 1005.70 1005.86 1006.11 1006.43 1006.78 1007.14 1007.47 1007.76 1008.02
1010.11 1010.40 1010.64 1010.81 1010.90 1010.89 1010.82 1010.70 1010.59 1010.51 1010.50 1010.56 1010.67 1010.79 1010.89 1010.91 1010.82 1010.61 1010.27 1009.84 1009.35 1008.84 1008.35 1007.89 1007.48 1007.12 1006.78 1006.45 1006.12 1005.80 1005.49 1005.22 1005.04 1004.95 1004.98 1005.14 1005.41 1005.75 1006.14 1006.53 1006.90 1007.23 1007.52
1010.83 1011.11 1011.34 1011.50 1011.55 1011.51 1011.40 1011.23 1011.06 1010.92 1010.84 1010.82 1010.84 1010.88 1010.90 1010.87 1010.74 1010.51 1010.18 1009.76 1009.30 1008.82 1008.35 1007.91 1007.49 1007.10 1006.70 1006.31 1005.90 1005.49 1005.09 1004.75 1004.50 1004.35 1004.34 1004.46 1004.71 1005.04 1005.43 1005.83 1006.20 1006.55 1006.86
1011.59 1011.89 1012.12 1012.28 1012.32 1012.26 1012.10 1011.89 1011.66 1011.45 1011.28 1011.16 1011.10 1011.06 1011.01 1010.91 1010.76 1010.51 1010.19 1009.81 1009.38 1008.94 1008.49 1008.06 1007.63 1007.20 1006.75 1006.29 1005.80 1005.30 1004.83 1004.40 1004.07 1003.86 1003.78 1003.86 1004.05 1004.34 1004.69 1005.06 1005.43 1005.77 1006.08
1012.34 1012.67 1012.92 1013.09 1013.13 1013.06 1012.88 1012.62 1012.33 1012.04 1011.79 1011.59 1011.43 1011.31 1011.18 1011.04 1010.86 1010.61 1010.31 1009.95 1009.56 1009.14 1008.71 1008.28 1007.83 1007.36 1006.86 1006.33 1005.78 1005.21 1004.66 1004.16 1003.76 1003.48 1003.34 1003.33 1003.46 1003.68 1003.97 1004.30 1004.62 1004.93 1005.24
1013.02 1013.38 1013.68 1013.86 1013.92 1013.84 1013.64 1013.35 1013.01 1012.66 1012.33 1012.04 1011.80 1011.60 1011.42 1011.23 1011.02 1010.78 1010.48 1010.14 1009.77 1009.36 1008.94 1008.48 1008.01 1007.50 1006.96 1006.37 1005.76 1005.14 1004.54 1003.99 1003.53 1003.19 1002.98 1002.91 1002.96 1003.10 1003.30 1003.56 1003.82 1004.09 1004.36
1013.61 1014.00 1014.32 1014.52 1014.59 1014.51 1014.30 1013.99 1013.62 1013.21 1012.82 1012.46 1012.15 1011.89 1011.66 1011.43 1011.20 1010.94 1010.65 1010.32 1009.94 1009.54 1009.09 1008.62 1008.11 1007.56 1006.98 1006.36 1005.72 1005.07 1004.44 1003.87 1003.38 1003.00 1002.74 1002.59 1002.56 1002.60 1002.72 1002.88 1003.07 1003.28 1003.51
1014.07 1014.48 1014.81 1015.03 1015.10 1015.03 1014.82 1014.49 1014.09 1013.64 1013.21 1012.80 1012.44 1012.13 1011.86 1011.60 1011.35 1011.07 1010.77 1010.42 1010.04 1009.61 1009.14 1008.64 1008.10 1007.53 1006.92 1006.28 1005.64 1004.99 1004.37 1003.80 1003.31 1002.91 1002.60 1002.39 1002.28 1002.23 1002.25 1002.31 1002.41 1002.54 1002.72
1014.44 1014.84 1015.16 1015.38 1015.45 1015.38 1015.16 1014.82 1014.40 1013.94 1013.47 1013.03 1012.64 1012.29 1011.98 1011.70 1011.42 1011.13 1010.81 1010.44 1010.04 1009.59 1009.10 1008.57 1008.00 1007.42 1006.80 1006.18 1005.55 1004.93 1004.34 1003.80 1003.32 1002.92 1002.58 1002.32 1002.13 1002.00 1001.91 1001.87 1001.87 1001.92 1002.02
1014.76 1015.13 1015.43 1015.62 1015.67 1015.57 1015.34 1015.00 1014.57 1014.10 1013.62 1013.16 1012.75 1012.38 1012.04 1011.74 1011.44 1011.12 1010.78 1010.40 1009.97 1009.50 1008.99 1008.45 1007.88 1007.29 1006.70 1006.10 1005.51 1004.94 1004.40 1003.90 1003.44 1003.04 1002.70 1002.40 1002.14 1001.92 1001.74 1001.59 1001.49 1001.44 1001.46
1015.10 1015.41 1015.65 1015.79 1015.81 1015.69 1015.44 1015.09 1014.66 1014.18 1013.70 1013.24 1012.80 1012.42 1012.07 1011.74 1011.42 1011.09 1010.73 1010.33 1009.89 1009.41 1008.90 1008.36 1007.80 1007.23 1006.67 1006.11 1005.57 1005.05 1004.56 1004.10 1003.68 1003.29 1002.93 1002.59 1002.28 1001.99 1001.73 1001.49 1001.29 1001.15 1001.09
1015.49 1015.73 1015.91 1015.99 1015.96 1015.80 1015.54 1015.17 1014.74 1014.26 1013.78 1013.31 1012.87 1012.47 1012.11 1011.76 1011.42 1011.08 1010.70 1010.30 1009.86 1009.38 1008.88 1008.36 1007.82 1007.29 1006.76 1006.24 1005.74 1005.27 1004.82 1004.39 1003.99 1003.61 1003.24 1002.88 1002.53 1002.19 1001.86 1001.55 1001.28 1001.06 1000.92
Thickness
5726 5725 5723 5722 5720 5719 5717 5716 5715 5714 5713 5712 5711 5710 5709 5708 5707 5706 5706 5705 5704 5703 5702 5701 5700 5699 5698 5698 5697 5697 5697 5697 5697 5697 5696 5696 5696 5696 5696 5696 5696 5697 5697
5723 5720 5718 5717 5716 5714 5713 5712 5710 5709 5708 5707 5706 5706 5705 5704 5703 5703 5702 5701 5700 5699 5698 5697 5697 5695 5694 5694 5694 5694 5693 5693 5694 5694 5693 5693 5693 5693 5693 5693 5693 5694 5694
5719 5716 5713 5711 5710 5709 5708 5706 5705 5704 5703 5702 5701 5701 5701 5700 5699 5699 5699 5697 5696 5695 5694 5693 5692 5692 5691 5690 5690 5689 5689 5689 5689 5689 5690 5690 5689 5690 5690 5690 5690 5691 5691
5715 5712 5709 5707 5705 5704 5702 5700 5698 5697 5696 5695 5695 5696 5696 5696 5695 5695 5694 5693 5692 5691 5690 5689 5687 5687 5686 5686 5686 5685 5685 5685 5685 5685 5685 5686 5686 5686 5687 5687 5687 5688 5688
5711 5708 5705 5703 5701 5698 5696 5695 5693 5691 5690 5689 5690 5691 5691 5691 5691 5690 5690 5689 5688 5687 5685 5684 5683 5682 5682 5682 5681 5681 5680 5680 5680 5681 5681 5682 5682 5682 5683 5683 5684 5684 5685
5707 5704 5702 5699 5696 5693 5691 5689 5687 5687 5685 5684 5685 5685 5686 5687 5686 5685 5685 5684 5684 5683 5681 5679 5678 5678 5677 5676 5676 5676 5675 5675 5675 5676 5676 5677 5678 5678 5679 5679 5679 5680 5681
5702 5699 5697 5695 5692 5688 5686 5684 5683 5681 5680 5680 5677 5675 5678 5680 5681 5680 5680 5679 5678 5678 5676 5675 5673 5673 5672 5671 5671 5670 5670 5670 5670 5670 5671 5671 5672 5673 5674 5674 5675 5675 5676
5698 5696 5692 5690 5687 5684 5681 5679 5677 5675 5674 5674 5669 5664 5663 5666 5672 5675 5674 5673 5672 5671 5670 5670 5668 5667 5667 5666 5665 5665 5665 5665 5664 5664 5665 5665 5665 5667 5667 5669 5669 5670 5671
5694 5692 5687 5685 5683 5680 5675 5674 5672 5670 5667 5667 5665 5660 5655 5654 5658 5664 5666 5666 5665 5664 5663 5663 5662 5662 5661 5660 5659 5659 5658 5658 5658 5658 5658 5659 5659 5660 5661 5662 5663 5664 5666
5690 5687 5684 5681 5679 5675 5672 5670 5669 5667 5664 5660 5659 5658 5656 5653 5649 5651 5655 5657 5657 5657 5656 5656 5656 5655 5654 5653 5652 5652 5652 5652 5652 5652 5652 5653 5653 5653 5654 5655 5656 5658 5660
5684 5682 5680 5676 5673 5670 5668 5665 5664 5662 5659 5656 5653 5651 5650 5647 5645 5642 5643 5646 5648 5649 5649 5649 5648 5648 5647 5646 5645 5645 5645 5645 5645 5645 5645 5646 5646 5646 5647 5648 5649 5651 5653
5678 5677 5675 5672 5669 5666 5664 5661 5659 5657 5654 5652 5649 5646 5643 5640 5637 5635 5634 5635 5637 5640 5641 5641 5640 5640 5639 5638 5638 5638 5638 5638 5637 5638 5638 5638 5639 5639 5640 5640 5642 5644 5645
5671 5670 5669 5666 5664 5662 5659 5657 5655 5652 5649 5646 5643 5640 5638 5635 5633 5630 5627 5626 5627 5630 5632 5632 5632 5631 5631 5630 5629 5630 5630 5630 5630 5630 5630 5631 5632 5632 5633 5634 5635 5636 5638
5667 5666 5663 5661 5659 5657 5655 5653 5650 5647 5644 5641 5639 5635 5632 5630 5628 5625 5621 5619 5617 5618 5619 5621 5622 5621 5621 5620 5620 5620 5621 5622 5623 5623 5623 5623 5624 5625 5626 5626 5627 5629 5630
5663 5662 5659 5657 5655 5654 5651 5648 5645 5642 5639 5635 5632 5629 5626 5624 5621 5619 5616 5613 5608 5606 5608 5610 5610 5612 5611 5611 5611 5610 5611 5613 5614 5615 5615 5616 5617 5618 5619 5619 5619 5621 5623
5658 5656 5654 5653 5651 5649 5646 5643 5640 5637 5633 5629 5626 5622 5619 5617 5614 5611 5608 5605 5601 5598 5597 5599 5599 5600 5600 5600 5601 5601 5602 5603 5605 5606 5607 5608 5609 5611 5612 5612 5613 5615 5616
5653 5651 5650 5648 5646 5644 5641 5638 5634 5631 5627 5623 5620 5616 5613 5610 5606 5603 5600 5596 5592 5589 5586 5588 5589 5590 5589 5589 5590 5591 5592 5593 5595 5597 5598 5599 5601 5602 5603 5604 5606 5608 5610
5649 5647 5645 5643 5641 5639 5636 5632 5628 5625 5621 5617 5614 5610 5606 5603 5599 5595 5591 5587 5584 5581 5577 5576 5578 5578 5579 5579 5580 5581 5582 5584 5585 5587 5588 5590 5591 5593 5594 5596 5598 5599 5601
5644 5643 5641 5638 5636 5633 5630 5627 5623 5619 5616 5612 5608 5603 5599 5595 5591 5587 5583 5578 5575 5573 5569 5566 5566 5567 5567 5569 5569 5570 5571 5572 5575 5577 5579 5581 5583 5584 5586 5588 5589 5591 5593
5640 5638 5636 5634 5631 5628 5625 5622 5618 5614 5610 5606 5602 5597 5593 5589 5584 5580 5576 5571 5568 5564 5560 5557 5555 5555 5555 5557 5557 5557 5558 5560 5563 5567 5569 5572 5574 5576 5578 5580 5582 5584 5586
5637 5634 5632 5629 5626 5623 5620 5616 5613 5609 5604 5599 5595 5590 5587 5583 5580 5575 5570 5565 5560 5555 5552 5548 5546 5544 5544 5544 5544 5545 5546 5548 5552 5556 5558 5561 5564 5567 5570 5572 5574 5576 5578
5633 5631 5628 5625 5622 5619 5616 5612 5608 5602 5597 5592 5587 5583 5580 5576 5572 5568 5564 5561 5556 5550 5545 5541 5537 5535 5535 5535 5535 5536 5535 5537 5539 5545 5547 5550 5554 5557 5560 5564 5567 5570 5572
5630 5627 5623 5620 5617 5613 5610 5606 5602 5597 5591 5585 5581 5576 5575 5570 5565 5561 5557 5555 5551 5547 5543 5537 5532 5530 5529 5529 5527 5527 5527 5528 5530 5535 5537 5540 5544 5547 5552 5555 5559 5562 5564
5627 5623 5620 5616 5612 5609 5605 5601 5596 5590 5584 5579 5574 5570 5566 5562 5559 5554 5550 5547 5543 5541 5538 5534 5530 5528 5527 5525 5523 5522 5521 5522 5525 5527 5529 5530 5534 5538 5543 5546 5550 5553 5556
5624 5620 5617 5613 5608 5605 5601 5596 5591 5584 5578 5573 5569 5565 5561 5556 5554 5550 5545 5540 5537 5534 5533 5530 5528 5525 5523 5521 5519 5516 5515 5514 5516 5519 5522 5522 5526 5529 5533 5537 5541 5544 5547
5622 5618 5614 5609 5605 5600 5596 5592 5586 5579 5573 5568 5564 5561 5557 5553 5549 5545 5539 5534 5531 5529 5527 5525 5523 5521 5518 5516 5515 5512 5511 5509 5509 5512 5516 5516 5518 5520 5523 5528 5531 5534 5537